[[{"header":{"parameterUnit":"m.s-1","parameterCategory":1,"la1":30.2991,"la2":30.254,"lo1":-89.0895,"lo2":-89.0444,"dy":0.0017,"dx":0.0017,"nx":28,"ny":28,"refTime":"2025-01-15T03:00:00:Z","depth":0,"parameterNumber":2,"parameterNumberName":"U-component_of_WINDS"},"data":[0,0,0,0,0,0,0,0,0,0,0,0,0,0,0,0,0,0,0,0,0,0,0,0,0,0,0,0,0,0,0,0,0,0,0,0,0,0,0,0,0,0,0,0,0,0,0,0,0,0,0,0,0,0,0,0,0,0,2.2874,2.2875,0,2.2942,2.2943,2.2944,2.2916,2.2914,2.2912,2.2911,2.2982,2.2985,2.2988,0,0,0,0,0,0,0,0,0,0,0,0,0,2.2722,2.2725,2.2874,2.2875,2.2876,2.2942,2.2943,2.2944,2.2916,2.2914,2.2912,2.291,2.2981,2.2985,2.2989,0,0,0,0,0,0,0,0,0,0,0,0,0,2.2789,2.2726,2.2874,2.287,2.287,2.2942,2.2943,2.2944,2.2916,2.2914,2.2911,2.2909,2.2979,2.2984,2.2989,2.3069,0,0,2.3005,2.3007,0,0,0,0,0,0,0,0,2.2785,2.2794,2.287,2.287,2.2871,2.2918,2.2915,2.2986,2.2917,2.2899,2.2911,2.2908,2.2963,2.2969,2.2987,2.3073,2.3076,2.3005,2.3008,2.3011,2.3012,0,0,0,0,0,0,0,2.278,2.2791,2.2901,2.2871,2.2871,2.2865,2.2872,2.2928,2.2944,2.29,2.2898,2.2907,2.2962,2.2982,2.2988,2.3077,2.3005,2.301,2.3013,2.3015,2.3232,2.3234,0,0,0,0,0,0,2.2775,2.2788,2.2899,2.2903,2.2821,2.287,2.2877,2.2905,2.2943,2.2946,2.2909,2.2905,2.2975,2.2982,2.2991,2.3087,2.301,2.3015,2.3018,2.3229,2.3232,2.3235,0,0,0,0,0,0,2.2772,2.2786,2.2896,2.2845,2.2858,2.2875,2.2906,2.2908,2.2927,2.2949,2.2952,2.2926,2.2973,2.2984,2.305,2.3089,2.3018,2.3022,2.3226,2.323,2.3234,2.3281,0,0,0,0,0,0,2.2768,2.2785,2.2815,2.2846,2.2861,2.2954,2.2909,2.2911,2.2936,2.2932,2.2966,2.2969,2.2972,2.3043,2.3055,2.3095,2.3026,2.3223,2.3228,2.3233,2.3276,2.3286,2.3295,0,0,0,0,0,2.2763,2.2826,2.2817,2.283,2.2899,2.2956,2.2965,2.2966,2.2939,2.297,2.2984,2.2968,2.3083,2.305,2.3063,2.3106,2.322,2.3226,2.3232,2.3272,2.3284,2.3294,0,0,0,0,0,0,2.2799,2.283,2.282,2.2894,2.2923,2.2951,2.299,2.2979,2.3016,2.3011,2.3011,2.3019,2.3088,2.3103,2.3066,2.3185,2.3148,2.3157,2.3173,2.3185,2.3194,2.3189,2.303,0,0,0,0,0,2.2816,2.2859,2.2883,2.2947,2.2962,2.2974,2.2998,2.2997,2.3027,2.3039,2.3057,2.3087,2.313,2.3158,2.3198,2.3278,2.3285,2.3314,2.3323,2.3331,2.3339,2.3382,2.3395,2.3255,2.3255,2.3255,0,0,2.2851,2.2873,2.29,2.2955,2.2977,2.3022,2.2984,2.3033,2.3067,2.3046,2.311,2.3125,2.3158,2.3232,2.3265,2.3247,2.3379,2.3339,2.3344,2.3348,2.339,2.3403,2.3415,2.326,2.3259,2.3258,0,0,2.2939,2.2959,2.3015,2.3037,2.3071,2.3078,2.3091,2.3122,2.3131,2.3195,2.318,2.322,2.3294,2.3318,2.334,2.3437,2.3424,2.345,2.3499,2.3542,2.3553,2.3563,2.3598,2.361,2.3458,2.3458,2.3458,0,2.2978,2.3045,2.3045,2.3095,2.312,2.3103,2.3159,2.3181,2.3226,2.3244,2.3223,2.3315,2.3336,2.3415,2.3439,2.3457,2.3473,2.3446,2.3551,2.3561,2.357,2.3604,2.3617,2.3461,2.3461,2.346,2.346,0,2.3093,2.314,2.318,2.3224,2.3253,2.3307,2.3315,2.3344,2.334,2.335,2.3416,2.344,2.3486,2.3504,2.3501,2.3583,2.3571,2.3551,2.3513,2.3587,2.3618,2.3631,2.3465,2.3464,2.3463,2.3463,0,0,2.3206,2.3248,2.3263,2.3283,2.3318,2.3355,2.3408,2.3452,2.3477,2.3509,2.3554,2.3616,2.3598,2.3623,2.3622,2.3659,2.3735,2.3634,2.3635,2.3653,2.3827,2.3843,2.3857,2.3726,2.3729,2.373,2.3825,0,2.3296,2.3388,2.3389,2.3474,2.3518,2.3502,2.3548,2.3575,2.3585,2.3624,2.3636,2.3681,2.3653,2.3668,2.3704,2.3718,2.377,2.3711,2.3768,2.377,2.3761,2.3874,2.389,2.3978,2.3837,2.3839,2.384,0,2.3414,2.3449,2.3538,2.3568,2.3586,2.3627,2.3668,2.3705,2.3736,2.3741,2.3769,2.3762,2.3817,2.3777,2.3852,2.3812,2.3835,2.3846,2.3849,2.3855,2.381,2.3883,2.4006,2.4019,2.386,2.3858,2.3857,0,2.3488,2.3558,2.362,2.3637,2.3673,2.3703,2.3719,2.3747,2.3774,2.3809,2.3826,2.3868,2.3891,2.3923,2.3928,2.3899,2.4004,2.3964,2.401,2.401,2.4033,2.4032,2.4162,2.4048,2.4048,2.4047,2.4047,0,2.3589,2.3645,2.3654,2.3692,2.3754,2.3755,2.3816,2.383,2.3855,2.3896,2.3885,2.3924,2.3928,2.3969,2.3973,2.4035,2.4045,2.4051,2.4052,2.4052,2.4052,2.4068,2.4062,2.4051,2.405,2.4049,2.4049,0,2.3683,2.3691,2.3758,2.3786,2.3795,2.3839,2.3863,2.39,2.391,2.3962,2.3974,2.3989,2.4036,2.4044,2.41,2.4103,2.4177,2.4171,2.4166,2.4166,2.4211,2.4207,2.4357,2.4377,2.4249,2.425,2.4251,0,2.3747,2.3789,2.3822,2.3848,2.3866,2.3909,2.3936,2.3938,2.3967,2.4005,2.4037,2.4083,2.412,2.4196,2.4212,2.4254,2.4249,2.4299,2.4256,2.4255,2.4251,2.4248,2.4253,2.4308,2.4309,2.431,2.4311,0,2.3861,2.3863,2.3901,2.3942,2.3974,2.4006,2.4036,2.4059,2.4065,2.4098,2.4145,2.4174,2.423,2.4276,2.4318,2.4335,2.4325,2.4324,2.4337,2.4339,2.4334,2.4338,2.419,2.4321,2.432,2.4319,2.4319,2.4318,2.3942,2.3979,2.4007,2.4051,2.4074,2.4103,2.4139,2.4152,2.4192,2.4238,2.4237,2.4289,2.4319,2.4374,2.4394,2.4435,2.442,2.4438,2.4443,2.4448,2.4452,2.4327,2.4443,2.4443,2.4443,2.4442,2.4442,0,2.4055,2.4073,2.4113,2.4156,2.419,2.4176,2.4209,2.4239,2.4285,2.4313,2.4349,2.4404,2.4449,2.4468,2.4511,2.4541,2.4537,2.4552,2.455,2.4555,2.4464,2.4448,2.4555,2.4555,2.4555,2.4555,2.4555,2.4555,2.4118,2.418,2.4185,2.4258,2.4276,2.4327,2.4347,2.4373,2.4396,2.4457,2.4494,2.4506,2.4531,2.4576,2.4616,2.4621,2.4637,2.4655,2.4657,2.4572,2.4561,2.455,2.4536,2.4659,2.4659,2.4745,2.4746,2.4746]},{"header":{"parameterUnit":"m.s-1","parameterCategory":1,"la1":30.2991,"la2":30.254,"lo1":-89.0895,"lo2":-89.0444,"dy":0.0017,"dx":0.0017,"nx":28,"ny":28,"refTime":"2025-01-15T03:00:00:Z","depth":0,"parameterNumber":3,"parameterNumberName":"V-component_of_WINDS"},"data":[0,0,0,0,0,0,0,0,0,0,0,0,0,0,0,0,0,0,0,0,0,0,0,0,0,0,0,0,0,0,0,0,0,0,0,0,0,0,0,0,0,0,0,0,0,0,0,0,0,0,0,0,0,0,0,0,0,0,0.6145,0.6145,0,0.6139,0.6139,0.6139,0.6141,0.6141,0.6142,0.6142,0.6134,0.6134,0.6133,0,0,0,0,0,0,0,0,0,0,0,0,0,0.6154,0.6153,0.6145,0.6145,0.6145,0.6139,0.6139,0.6139,0.6141,0.6141,0.6142,0.6142,0.6134,0.6134,0.6133,0,0,0,0,0,0,0,0,0,0,0,0,0,0.6149,0.6153,0.6145,0.6145,0.6145,0.6139,0.6139,0.6139,0.6141,0.6141,0.6142,0.6142,0.6134,0.6134,0.6133,0.6126,0,0,0.6132,0.6131,0,0,0,0,0,0,0,0,0.6149,0.6149,0.6145,0.6145,0.6145,0.6141,0.6139,0.6134,0.6141,0.6143,0.6142,0.6142,0.6136,0.6135,0.6134,0.6126,0.6125,0.6132,0.6131,0.6131,0.6131,0,0,0,0,0,0,0,0.615,0.6149,0.6142,0.6145,0.6145,0.6144,0.6144,0.6138,0.6138,0.6142,0.6143,0.6142,0.6136,0.6134,0.6134,0.6125,0.6132,0.6131,0.6131,0.6131,0.6107,0.6107,0,0,0,0,0,0,0.615,0.6149,0.6143,0.6142,0.6148,0.6144,0.6143,0.6142,0.6138,0.6138,0.6142,0.6142,0.6135,0.6134,0.6133,0.6122,0.6131,0.6131,0.613,0.6107,0.6107,0.6106,0,0,0,0,0,0,0.615,0.615,0.6143,0.6146,0.6145,0.6144,0.6142,0.6142,0.614,0.6138,0.6137,0.614,0.6135,0.6134,0.6127,0.6122,0.613,0.613,0.6108,0.6107,0.6107,0.6102,0,0,0,0,0,0,0.6151,0.615,0.6148,0.6146,0.6145,0.6138,0.6142,0.6142,0.614,0.614,0.6136,0.6136,0.6135,0.6128,0.6127,0.6122,0.613,0.6108,0.6107,0.6107,0.6102,0.6101,0.61,0,0,0,0,0,0.6151,0.6147,0.6148,0.6147,0.6143,0.6138,0.6137,0.6137,0.6139,0.6137,0.6134,0.6136,0.6123,0.6127,0.6126,0.6121,0.6108,0.6108,0.6107,0.6103,0.6101,0.61,0,0,0,0,0,0,0.6149,0.6147,0.6148,0.6144,0.6141,0.6138,0.6135,0.6136,0.6132,0.6132,0.6132,0.6131,0.6123,0.6121,0.6126,0.6111,0.6116,0.6115,0.6113,0.6112,0.6111,0.6111,0.6129,0,0,0,0,0,0.6148,0.6146,0.6143,0.614,0.6138,0.6137,0.6135,0.6135,0.6131,0.613,0.6128,0.6124,0.6118,0.6115,0.611,0.6102,0.61,0.6097,0.6096,0.6095,0.6094,0.6086,0.6085,0.6104,0.6104,0.6104,0,0,0.6147,0.6145,0.6143,0.6139,0.6137,0.6132,0.6136,0.6132,0.6128,0.6129,0.6122,0.612,0.6115,0.6107,0.6103,0.6105,0.6088,0.6094,0.6094,0.6093,0.6085,0.6084,0.6082,0.6103,0.6104,0.6104,0,0,0.6141,0.614,0.6136,0.6133,0.613,0.6128,0.6127,0.6124,0.6122,0.6115,0.6115,0.611,0.6102,0.6097,0.6094,0.6083,0.6083,0.6081,0.6076,0.6068,0.6066,0.6065,0.6059,0.6057,0.608,0.608,0.608,0,0.6139,0.6133,0.6133,0.6128,0.6125,0.6126,0.612,0.6117,0.6112,0.6109,0.6112,0.6099,0.6096,0.6085,0.6082,0.6081,0.6077,0.6082,0.6067,0.6065,0.6064,0.6058,0.6056,0.608,0.608,0.608,0.608,0,0.613,0.6125,0.6122,0.6117,0.6113,0.6108,0.6105,0.6102,0.6101,0.6099,0.6089,0.6086,0.6079,0.6076,0.6076,0.6064,0.6065,0.6067,0.6071,0.6062,0.6056,0.6054,0.608,0.608,0.608,0.608,0,0,0.6124,0.6117,0.6116,0.6112,0.6107,0.6103,0.6096,0.6089,0.6085,0.6081,0.6073,0.6065,0.6066,0.6062,0.6061,0.6054,0.6043,0.6057,0.6056,0.6052,0.6026,0.6024,0.6021,0.6043,0.6042,0.6042,0.6026,0,0.6117,0.6106,0.6105,0.6094,0.6089,0.6088,0.6082,0.6077,0.6073,0.6067,0.6063,0.6056,0.6059,0.6056,0.605,0.6046,0.6037,0.6047,0.6034,0.6034,0.6034,0.6019,0.6017,0.6002,0.6024,0.6023,0.6023,0,0.6108,0.6102,0.6091,0.6084,0.6081,0.6076,0.6068,0.6063,0.6056,0.6053,0.6048,0.6046,0.6037,0.6042,0.6027,0.6034,0.6028,0.6025,0.6024,0.6022,0.6027,0.6014,0.5997,0.5994,0.602,0.602,0.602,0,0.6102,0.6092,0.6084,0.6081,0.6073,0.6068,0.6064,0.6058,0.6053,0.6045,0.6041,0.6033,0.6028,0.602,0.6016,0.602,0.6,0.6005,0.5997,0.5996,0.5992,0.5992,0.5972,0.5991,0.5991,0.5991,0.5991,0,0.6094,0.6087,0.6081,0.6076,0.6067,0.6064,0.6054,0.605,0.6044,0.6036,0.6035,0.6027,0.6022,0.6013,0.6009,0.5996,0.5994,0.5991,0.599,0.599,0.599,0.5986,0.5986,0.599,0.599,0.5991,0.5991,0,0.6087,0.6083,0.6073,0.6066,0.6063,0.6057,0.6049,0.6043,0.6038,0.6028,0.6026,0.6019,0.6008,0.6003,0.5989,0.5986,0.5971,0.5971,0.5973,0.5973,0.5963,0.5963,0.5938,0.5934,0.5957,0.5957,0.5957,0,0.6082,0.6076,0.6067,0.6061,0.6057,0.6049,0.6044,0.6039,0.6033,0.6023,0.6017,0.6006,0.5997,0.5978,0.5971,0.596,0.5959,0.5951,0.5957,0.5957,0.5956,0.5956,0.5954,0.595,0.5949,0.5949,0.5949,0,0.6071,0.6069,0.6062,0.6052,0.6045,0.6038,0.603,0.6026,0.602,0.6012,0.6001,0.5994,0.5979,0.5967,0.5954,0.5948,0.5946,0.5947,0.5944,0.5944,0.5944,0.5942,0.5968,0.5947,0.5948,0.5948,0.5948,0.5948,0.6064,0.6058,0.605,0.604,0.6034,0.6026,0.6018,0.6012,0.6003,0.5991,0.5988,0.5975,0.5965,0.5948,0.5941,0.593,0.5931,0.5928,0.5926,0.5925,0.5923,0.5947,0.5928,0.5928,0.5928,0.5928,0.5928,0,0.6052,0.6046,0.6038,0.6026,0.6018,0.6017,0.6008,0.6001,0.5989,0.598,0.5971,0.5955,0.5943,0.5934,0.592,0.5912,0.5911,0.5909,0.5908,0.5906,0.5924,0.5927,0.591,0.591,0.591,0.591,0.591,0.591,0.6045,0.6034,0.603,0.6013,0.6007,0.5995,0.5989,0.598,0.5973,0.5956,0.5945,0.5939,0.5929,0.5914,0.5901,0.5899,0.5893,0.589,0.5887,0.5904,0.5906,0.5907,0.591,0.589,0.589,0.5871,0.587,0.587]}]]